Location: Caltech
(34.1382°N, 118.1253°W)
Time: 03:20:52
(UTC-07:00)

JAS-1B - Visible Passes

Search period start: 23 September 2014 00:00
Search period end: 03 October 2014 00:00
Orbit: 911 x 1745 km, 99.1° (Epoch: 21 September)

Date Brightness Start Highest point End Pass type
(mag) Time Alt. Az. Time Alt. Az. Time Alt. Az.
23 Sep 8.9 03:34:33 10° N 03:35:56 18° N 03:35:56 18° N visible
24 Sep 8.9 03:53:52 10° N 03:55:04 16° NNW 03:55:04 16° NNW visible
25 Sep 9.0 04:13:25 10° NNW 04:14:12 13° NNW 04:14:12 13° NNW visible
26 Sep 9.6 02:40:48 10° NNE 02:41:06 12° NNE 02:41:06 12° NNE visible
26 Sep 9.1 04:33:18 10° NNW 04:33:21 10° NNW 04:33:21 10° NNW visible
27 Sep 9.4 02:59:41 10° NNE 03:00:15 13° NNE 03:00:15 13° NNE visible
28 Sep 9.3 03:18:44 10° N 03:19:23 14° N 03:19:23 14° N visible
29 Sep 9.2 03:37:56 10° N 03:38:32 13° N 03:38:32 13° N visible
30 Sep 9.2 03:57:18 10° N 03:57:41 12° NNW 03:57:41 12° NNW visible
